• In Netherlands
  • List of Countries
  • For 7 days
  • Water Temperature
  • Satellite Maps
  • Weather Map
  • Weather Widgets
  • user-avatar
    Login

    Hourly Weather Borovec

    Today, 28 June, Wednesday

    Time Temperature Precipitation Wind Pressure Humidity
    00:00 +16°C° 0 mm 1 mps 708 mmHg 84%
    01:00 +16°C° 0 mm 1 mps 708 mmHg 83%
    02:00 +18°C° 0 mm 1 mps 708 mmHg 82%
    03:00 +18°C° 0 mm 1 mps 708 mmHg 83%
    04:00 +18°C° 0 mm 1 mps 708 mmHg 83%
    05:00 +16°C° 0 mm 1 mps 708 mmHg 84%
    06:00 +20°C° 0 mm 1 mps 708 mmHg 75%
    07:00 +23°C° 0 mm 1 mps 709 mmHg 66%
    08:00 +26°C° 0 mm 1 mps 709 mmHg 56%
    09:00 +28°C° 0 mm 1 mps 709 mmHg 51%
    10:00 +30°C° 0 mm 1 mps 709 mmHg 46%
    11:00 +32°C° 0 mm 1 mps 709 mmHg 40%
    12:00 +33°C° 0.2 mm 1 mps 709 mmHg 38%
    13:00 +33°C° 0.2 mm 1 mps 709 mmHg 35%
    14:00 +34°C° 0.2 mm 1 mps 708 mmHg 33%
    15:00 +34°C° 0 mm 1 mps 708 mmHg 35%
    16:00 +33°C° 0 mm 1 mps 708 mmHg 37%
    17:00 +33°C° 0 mm 1 mps 707 mmHg 39%
    18:00 +30°C° 0 mm 2 mps 707 mmHg 45%
    19:00 +27°C° 0 mm 2 mps 707 mmHg 52%
    20:00 +25°C° 0 mm 2 mps 706 mmHg 59%
    21:00 +24°C° 0 mm 2 mps 707 mmHg 62%
    22:00 +23°C° 0 mm 2 mps 707 mmHg 64%
    23:00 +21°C° 0 mm 2 mps 707 mmHg 67%

    Tomorrow, 29 June, Thursday

    Time Temperature Precipitation Wind Pressure Humidity
    00:00 +21°C° 0 mm 2 mps 707 mmHg 69%
    01:00 +20°C° 0 mm 2 mps 707 mmHg 71%
    02:00 +20°C° 0 mm 2 mps 707 mmHg 74%
    03:00 +19°C° 0 mm 2 mps 707 mmHg 76%
    04:00 +19°C° 0 mm 2 mps 707 mmHg 78%
    05:00 +19°C° 0 mm 2 mps 707 mmHg 80%
    06:00 +21°C° 0 mm 2 mps 708 mmHg 71%
    07:00 +25°C° 0 mm 2 mps 708 mmHg 63%
    08:00 +28°C° 0 mm 2 mps 709 mmHg 54%
    09:00 +30°C° 0 mm 2 mps 709 mmHg 46%
    10:00 +34°C° 0 mm 3 mps 709 mmHg 38%
    11:00 +36°C° 0 mm 4 mps 709 mmHg 30%
    12:00 +37°C° 0 mm 5 mps 709 mmHg 28%
    13:00 +39°C° 0 mm 5 mps 708 mmHg 26%
    14:00 +40°C° 0 mm 6 mps 708 mmHg 24%
    15:00 +39°C° 0 mm 6 mps 708 mmHg 25%
    16:00 +38°C° 0 mm 6 mps 708 mmHg 25%
    17:00 +38°C° 0 mm 6 mps 707 mmHg 26%
    18:00 +34°C° 0 mm 5 mps 707 mmHg 33%
    19:00 +30°C° 0 mm 4 mps 707 mmHg 40%
    20:00 +27°C° 0 mm 2 mps 707 mmHg 47%
    21:00 +25°C° 0 mm 2 mps 707 mmHg 51%
    22:00 +24°C° 0 mm 2 mps 708 mmHg 55%
    23:00 +21°C° 0 mm 2 mps 708 mmHg 59%

    Day after tomorrow, 30 June, Friday

    Time Temperature Precipitation Wind Pressure Humidity
    00:00 +20°C° 0 mm 2 mps 708 mmHg 61%
    01:00 +20°C° 0 mm 2 mps 708 mmHg 63%
    02:00 +20°C° 0 mm 1 mps 708 mmHg 65%
    03:00 +20°C° 0 mm 1 mps 708 mmHg 66%
    04:00 +20°C° 0 mm 1 mps 708 mmHg 66%
    05:00 +19°C° 0 mm 1 mps 708 mmHg 67%
    06:00 +22°C° 0 mm 1 mps 709 mmHg 59%
    07:00 +26°C° 0 mm 1 mps 710 mmHg 52%
    08:00 +29°C° 0 mm 1 mps 711 mmHg 44%
    09:00 +31°C° 0 mm 2 mps 711 mmHg 38%
    10:00 +32°C° 0 mm 2 mps 711 mmHg 32%
    11:00 +35°C° 0 mm 3 mps 712 mmHg 26%
    12:00 +36°C° 0 mm 3 mps 711 mmHg 24%
    13:00 +37°C° 0 mm 3 mps 711 mmHg 23%
    14:00 +38°C° 0 mm 3 mps 711 mmHg 21%
    15:00 +38°C° 0 mm 3 mps 711 mmHg 23%
    16:00 +38°C° 0 mm 2 mps 710 mmHg 24%
    17:00 +38°C° 0 mm 2 mps 710 mmHg 26%
    18:00 +33°C° 0 mm 1 mps 710 mmHg 37%
    19:00 +29°C° 0 mm 1 mps 709 mmHg 47%
    20:00 +25°C° 0 mm 1 mps 709 mmHg 57%
    21:00 +25°C° 0 mm 1 mps 709 mmHg 57%
    22:00 +24°C° 0 mm 1 mps 709 mmHg 56%
    23:00 +23°C° 0 mm 1 mps 709 mmHg 56%

    1 July, Saturday

    Time Temperature Precipitation Wind Pressure Humidity
    00:00 +23°C° 0 mm 1 mps 709 mmHg 54%
    01:00 +23°C° 0 mm 1 mps 709 mmHg 52%
    02:00 +23°C° 0 mm 2 mps 709 mmHg 50%
    03:00 +23°C° 0 mm 2 mps 708 mmHg 49%
    04:00 +23°C° 0 mm 2 mps 708 mmHg 48%
    05:00 +21°C° 0 mm 2 mps 708 mmHg 47%
    06:00 +25°C° 0 mm 2 mps 708 mmHg 45%
    07:00 +28°C° 0 mm 2 mps 709 mmHg 43%
    08:00 +31°C° 0 mm 2 mps 709 mmHg 40%
    09:00 +34°C° 0 mm 3 mps 709 mmHg 34%
    10:00 +36°C° 0 mm 3 mps 709 mmHg 28%
    11:00 +38°C° 0 mm 4 mps 709 mmHg 22%
    12:00 +40°C° 0 mm 4 mps 709 mmHg 21%
    13:00 +41°C° 0 mm 4 mps 709 mmHg 19%
    14:00 +42°C° 0 mm 4 mps 708 mmHg 18%
    15:00 +41°C° 0 mm 4 mps 708 mmHg 19%
    16:00 +41°C° 0 mm 4 mps 707 mmHg 20%
    17:00 +40°C° 0 mm 4 mps 707 mmHg 21%
    18:00 +36°C° 0 mm 3 mps 706 mmHg 28%
    19:00 +31°C° 0 mm 3 mps 706 mmHg 34%
    20:00 +28°C° 0 mm 2 mps 706 mmHg 41%
    21:00 +26°C° 0 mm 2 mps 706 mmHg 46%
    22:00 +25°C° 0 mm 2 mps 706 mmHg 50%
    23:00 +23°C° 0 mm 2 mps 706 mmHg 55%

    2 July, Sunday

    Time Temperature Precipitation Wind Pressure Humidity
    00:00 +22°C° 0 mm 1 mps 706 mmHg 61%
    01:00 +21°C° 0 mm 1 mps 705 mmHg 67%
    02:00 +20°C° 0 mm 1 mps 705 mmHg 73%
    03:00 +20°C° 0 mm 1 mps 705 mmHg 76%
    04:00 +19°C° 0 mm 1 mps 705 mmHg 78%
    05:00 +19°C° 0 mm 1 mps 705 mmHg 81%
    06:00 +21°C° 0 mm 1 mps 706 mmHg 72%
    07:00 +24°C° 0 mm 2 mps 706 mmHg 63%
    08:00 +26°C° 0 mm 2 mps 706 mmHg 54%
    09:00 +28°C° 0 mm 2 mps 706 mmHg 49%
    10:00 +29°C° 0 mm 3 mps 706 mmHg 44%
    11:00 +30°C° 0 mm 3 mps 706 mmHg 39%
    12:00 +30°C° 0.2 mm 3 mps 706 mmHg 40%
    13:00 +30°C° 0.2 mm 4 mps 705 mmHg 41%
    14:00 +30°C° 0.2 mm 4 mps 705 mmHg 42%
    15:00 +28°C° 0.7 mm 4 mps 705 mmHg 53%
    16:00 +26°C° 0.7 mm 4 mps 704 mmHg 63%
    17:00 +22°C° 0.7 mm 4 mps 704 mmHg 73%
    18:00 +21°C° 3.6 mm 3 mps 704 mmHg 80%
    19:00 +19°C° 3.6 mm 3 mps 705 mmHg 87%
    20:00 +18°C° 3.6 mm 3 mps 705 mmHg 94%
    21:00 +17°C° 0.2 mm 2 mps 705 mmHg 93%
    22:00 +17°C° 0.2 mm 2 mps 706 mmHg 93%
    23:00 +17°C° 0.2 mm 2 mps 706 mmHg 93%

    3 July, Monday

    Time Temperature Precipitation Wind Pressure Humidity
    00:00 +16°C° 0 mm 2 mps 706 mmHg 93%
    01:00 +15°C° 0 mm 2 mps 706 mmHg 93%
    02:00 +14°C° 0 mm 3 mps 707 mmHg 93%
    03:00 +13°C° 0 mm 3 mps 707 mmHg 93%
    04:00 +12°C° 0 mm 3 mps 707 mmHg 93%
    05:00 +12°C° 0 mm 3 mps 707 mmHg 93%
    06:00 +13°C° 0 mm 3 mps 707 mmHg 88%
    07:00 +14°C° 0 mm 3 mps 708 mmHg 84%
    08:00 +15°C° 0 mm 4 mps 708 mmHg 79%
    09:00 +15°C° 0 mm 4 mps 708 mmHg 76%
    10:00 +17°C° 0 mm 4 mps 708 mmHg 73%
    11:00 +17°C° 0 mm 4 mps 708 mmHg 70%
    12:00 +18°C° 0 mm 4 mps 708 mmHg 68%
    13:00 +18°C° 0 mm 4 mps 708 mmHg 67%
    14:00 +19°C° 0 mm 4 mps 708 mmHg 65%
    15:00 +19°C° 0 mm 4 mps 708 mmHg 65%
    16:00 +20°C° 0 mm 4 mps 708 mmHg 64%
    17:00 +20°C° 0 mm 4 mps 709 mmHg 64%
    18:00 +19°C° 0 mm 3 mps 709 mmHg 70%
    19:00 +17°C° 0 mm 3 mps 709 mmHg 75%
    20:00 +16°C° 0 mm 2 mps 709 mmHg 81%
    21:00 +15°C° 0 mm 2 mps 709 mmHg 85%
    22:00 +15°C° 0 mm 2 mps 710 mmHg 88%
    23:00 +14°C° 0 mm 2 mps 710 mmHg 91%
    Show more